Wind_Speed
22 21 22 20 19 19 19 19 16 16 17 16 14 13 12 11 10 9 8 7 6 6 5 5 5 5 5 5 6 7 8 9
25 20 19 18 18 20 19 20 17 16 16 15 13 12 11 9 8 9 7 6 6 5 5 6 5 5 6 6 8 12 9 10
25 22 19 18 18 19 19 18 19 17 15 14 13 11 11 11 12 9 7 7 6 6 6 6 8 8 7 9 12 8 9 10
26 24 21 20 18 18 16 16 14 14 12 11 10 11 10 11 10 9 9 9 8 7 7 9 9 5 6 10 8 8 9 11
24 22 22 21 19 18 16 15 14 13 15 12 11 10 9 8 8 6 6 9 6 7 7 7 8 6 6 7 7 7 8 9
23 22 22 20 19 17 15 15 15 13 13 15 12 9 9 8 7 7 6 6 6 6 6 8 8 9 8 8 8 6 6 8
26 23 21 20 19 18 16 14 14 15 13 11 12 11 10 9 8 8 7 6 6 6 6 7 7 8 7 7 8 8 7 6
27 24 21 20 19 19 17 16 15 14 14 12 12 12 12 9 9 8 7 7 6 6 6 6 6 6 7 8 8 8 7 7
28 24 22 21 19 19 18 16 17 15 13 13 11 11 12 11 9 8 7 7 7 7 7 6 6 6 7 7 8 8 8 8
28 25 23 22 20 19 18 18 16 15 14 13 13 12 12 11 10 8 8 8 7 7 6 6 6 6 6 6 7 7 7 8
30 27 26 23 21 20 18 18 16 15 14 14 14 13 12 12 11 9 8 8 8 7 6 6 6 6 7 7 7 6 6 5
31 30 28 26 23 20 19 18 17 15 15 15 15 13 13 12 11 10 9 8 8 7 8 8 6 6 7 7 7 5 4 3
32 31 31 30 27 26 24 23 20 18 16 17 15 14 13 13 12 11 9 8 8 8 8 8 7 5 7 6 5 2 2 2
33 33 34 33 28 26 24 23 20 19 18 17 15 15 14 13 13 12 11 10 8 7 6 6 7 4 4 5 4 4 6 2
35 35 35 34 30 27 23 22 20 20 19 18 17 15 14 13 13 13 12 10 9 7 6 5 6 5 3 2 3 3 5 5
34 35 36 35 34 32 32 30 27 25 24 20 19 17 15 14 13 13 12 11 10 8 5 5 5 7 4 4 3 2 3 4
34 36 36 35 37 33 32 28 25 25 23 22 20 18 16 15 14 13 13 12 11 10 8 7 6 5 5 5 3 1 1 3
32 36 36 35 36 33 33 31 29 28 27 26 23 20 18 16 15 14 13 13 12 11 10 8 7 6 6 5 5 3 3 2
29 33 35 37 37 35 34 32 30 30 30 28 26 23 21 20 18 16 14 13 12 11 10 9 8 7 6 6 6 5 4 3
29 32 34 36 34 34 32 31 30 28 29 27 25 23 21 20 18 16 15 14 13 11 10 9 8 7 6 5 5 5 4 4
Wind_Direction
158 162 170 170 166 163 165 162 163 161 157 155 149 144 138 133 127 122 115 106 99 93 85 75 63 59 56 48 47 61 46 42
163 160 162 163 160 166 170 167 167 166 161 158 152 143 135 128 121 133 126 115 110 104 87 72 62 63 70 62 61 51 51 47
171 165 159 155 154 162 167 170 165 164 159 154 127 126 119 113 134 126 115 107 99 93 84 80 62 46 53 64 64 58 60 57
174 170 163 159 157 156 155 157 155 154 152 149 141 135 135 126 114 106 99 93 89 87 86 71 72 64 38 49 61 70 70 64
175 172 169 164 163 164 167 164 165 162 155 151 147 136 129 123 113 102 93 87 87 76 71 75 71 74 59 63 66 72 83 75
176 179 171 168 165 166 170 168 165 161 164 155 152 144 137 133 130 117 105 100 89 85 77 78 73 70 71 71 72 82 93 81
182 179 174 167 164 165 164 169 164 162 158 161 155 150 145 140 131 124 116 107 99 92 87 90 84 80 83 88 83 82 86 88
180 180 175 167 168 162 161 163 167 159 160 163 156 151 146 142 133 128 118 111 106 104 104 92 96 95 93 95 92 89 85 85
182 180 176 169 166 161 160 164 162 163 161 153 156 149 145 143 138 130 125 113 103 99 93 99 108 102 107 103 92 88 80 74
181 180 178 172 168 164 165 163 165 162 158 155 155 152 148 140 136 133 131 120 114 110 114 112 112 112 113 105 99 91 79 69
181 181 179 174 170 167 166 162 164 164 161 160 158 156 152 146 142 140 132 125 122 114 100 106 112 110 111 107 107 102 86 72
183 181 181 177 171 168 165 162 164 168 166 166 161 160 153 146 143 139 134 130 117 110 106 95 109 125 123 121 118 112 89 77
184 180 181 177 176 175 173 170 169 171 171 168 165 162 157 152 147 140 138 135 131 122 114 112 95 134 134 140 140 132 112 125
187 183 182 183 183 183 180 174 174 174 171 170 170 165 160 159 153 148 144 135 125 125 141 136 106 101 222 195 176 190 222 200
191 188 186 187 185 179 175 171 172 175 175 173 173 170 166 164 158 153 146 144 140 130 127 157 145 105 96 292 206 247 182 195
196 194 191 190 186 185 183 178 178 185 180 177 175 173 169 166 160 153 149 148 143 131 134 133 151 151 108 64 58 349 270 182
199 196 194 194 190 190 185 186 188 180 178 175 176 175 173 170 164 158 153 153 145 142 137 133 125 134 135 145 117 96 349 284
204 200 198 195 194 194 194 189 183 180 180 178 178 176 175 175 171 164 159 152 145 145 138 131 128 134 133 146 173 219 204 248
208 206 203 198 196 199 196 193 189 187 183 181 177 178 180 180 173 169 161 157 154 148 137 136 137 144 144 146 142 148 174 165
210 210 210 204 201 200 197 195 193 193 189 184 182 182 181 178 173 167 163 157 154 146 142 137 134 136 138 147 146 150 162 151
Height
797 801 804 807 809 811 814 815 819 819 820 821 822 822 823 823 824 825 825 825 825 826 826 825 825 825 824 824 823 822 824 823
795 799 803 806 808 811 815 814 817 819 820 821 822 823 823 824 825 825 825 825 825 826 826 826 825 825 824 824 824 824 825 825
794 797 802 805 808 810 813 816 815 819 821 822 823 826 826 827 824 825 824 825 825 825 825 825 825 825 825 824 825 826 825 825
792 795 799 803 807 811 813 815 819 819 822 824 825 826 827 826 825 825 825 825 826 825 825 826 827 828 827 826 826 826 827 827
790 794 797 800 804 809 813 814 817 819 819 822 824 825 826 826 827 828 828 827 829 828 828 827 826 827 827 827 827 827 828 828
789 793 794 797 800 805 810 813 814 818 820 818 821 824 825 826 827 828 828 829 829 829 828 827 827 827 827 828 828 828 829 830
787 791 793 794 798 801 807 811 814 815 819 820 820 822 824 825 826 827 828 828 828 829 829 828 828 827 828 828 829 830 830 830
782 787 790 791 796 798 803 809 812 815 816 818 819 819 821 824 825 826 827 827 827 828 828 829 829 829 829 829 829 830 830 830
778 783 786 789 793 796 801 806 810 813 815 815 818 819 820 823 825 826 826 825 826 828 828 829 829 829 829 829 830 831 832 832
774 779 784 787 790 794 799 802 808 811 812 814 816 818 819 821 823 825 825 825 826 827 828 828 829 829 830 830 831 832 834 833
769 774 780 785 789 792 797 800 806 809 811 813 814 816 818 819 821 822 824 824 825 826 827 828 829 830 831 832 832 834 834 835
763 768 774 780 786 791 795 798 803 807 810 812 813 815 816 818 819 821 823 824 825 826 827 827 829 829 830 832 833 834 834 835
756 762 768 774 780 785 790 792 798 804 807 809 811 813 814 817 818 819 821 823 823 824 826 827 828 829 830 831 832 834 834 834
750 756 762 768 775 781 786 790 795 800 803 807 809 811 812 815 816 817 819 820 822 823 825 826 826 827 827 825 825 832 834 833
743 751 757 763 769 776 782 788 793 798 801 803 806 808 811 812 814 815 816 819 821 822 823 825 825 827 828 825 820 814 826 830
739 746 750 757 762 768 772 775 783 789 794 799 803 805 808 810 812 813 815 817 819 820 823 824 824 824 826 827 828 828 821 820
734 739 745 751 755 761 767 772 779 785 790 795 800 803 805 808 810 812 814 816 816 819 822 823 824 825 824 828 828 830 828 823
731 734 738 745 751 757 761 764 771 778 784 789 794 799 803 806 808 810 812 814 816 819 821 823 824 827 826 826 827 828 829 825
727 731 735 739 745 752 757 761 767 773 778 782 787 793 798 802 805 808 810 813 816 818 819 822 824 827 827 828 828 829 832 829
720 725 731 736 742 747 753 758 763 769 774 778 783 788 794 799 803 806 809 812 815 817 820 822 824 827 828 830 830 830 831 828